Abbotsford, British Columbia

6:21 AM PDT on July 23, 2017 (GMT -0700)
Abbotsford

Weather History for CYXX - November, 2012

Change the Weather History Date:

Saturday, November 24, 2012

  Actual Average Record
Temperature  
Mean Temperature 41 °F -  
Max Temperature 50 °F 43 °F 55 °F (2004)
Min Temperature 32 °F 32 °F 15 °F (2010)
Degree Days  
Heating Degree Days 24    
Moisture  
Dew Point 39 °F    
Average Humidity 94    
Maximum Humidity 100    
Minimum Humidity 68    
Precipitation  
Precipitation 0.01 in 0.29 in - ()
Sea Level Pressure  
Sea Level Pressure 30.22 in    
Wind  
Wind Speed 3 mph ()    
Max Wind Speed 9 mph    
Max Gust Speed -    
Visibility 9.0 miles    
Events Fog , Rain    
Averages and records for this station are not official NWS values.
T = Trace of Precipitation, MM = Missing Value Source: Averaged Metar Reports

Daily Weather History Graph

Daily Weather History Graph

Search for Another Location

Airport or City:

Trip Planner

Search our weather history database for the weather conditions in past years. The results will help you decide how hot, cold, wet, or windy it might be!

Date:

Astronomy

Nov. 24, 2012 Rise Set
Actual Time 7:33 AM PST 4:18 PM PST
Civil Twilight 6:57 AM PST 4:54 PM PST
Nautical Twilight 6:18 AM PST 5:33 PM PST
Astronomical Twilight 5:40 AM PST 6:11 PM PST
Moon 2:19 PM PST (11/24) 3:40 AM PST (11/24)
Length of Visible Light 9h 56m
Length of Day
8h 45m
Waxing Gibbous, 88% of the Moon is Illuminated
Nov 24
Waxing Gibbous
Nov 28
Full
Dec 6
Last Quarter
Dec 13
New
Dec 19
First Quarter

Hourly Weather History & Observations

Time (PST) Temp. Windchill Dew Point Humidity Pressure Visibility Wind Dir Wind Speed Gust Speed Precip Events Conditions
12:00 AM 44.6 °F 40.2 °F 44.6 °F 100% 30.13 in 2.2 mi SSW 8.1 mph - N/A   Mostly Cloudy
12:48 AM 44.6 °F 41.4 °F 44.6 °F 100% 30.14 in 0.8 mi SW 5.8 mph - N/A   Mostly Cloudy
1:00 AM 42.8 °F 39.3 °F 42.8 °F 100% 30.14 in 0.2 mi SSW 5.8 mph - N/A Fog Fog
2:00 AM 41.0 °F - 41.0 °F 100% 30.15 in 0.2 mi Calm Calm - N/A Fog Fog
2:34 AM 41.0 °F - 41.0 °F 100% 30.17 in 0.5 mi Calm Calm - N/A Fog Fog
3:00 AM 41.0 °F - 41.0 °F 100% 30.18 in 2.0 mi SW 2.3 mph - N/A Rain Light Rain Showers
3:25 AM 41.0 °F 38.0 °F 41.0 °F 100% 30.18 in 8.0 mi SSW 4.6 mph - N/A Rain Light Rain Showers
4:00 AM 42 °F - 42 °F 98% 30.18 in 10 mi South 3.5 mph - - Rain Light Rain Showers
4:00 AM 41.0 °F 39.0 °F 41.0 °F 100% 30.18 in 10.0 mi South 3.5 mph - N/A Rain Light Rain Showers
4:24 AM 41.0 °F - 41.0 °F 100% 30.18 in 10.0 mi South 2.3 mph - N/A   Overcast
5:00 AM 39.2 °F 37.0 °F 39.2 °F 100% 30.19 in 15.0 mi WSW 3.5 mph - N/A   Scattered Clouds
6:00 AM 37.4 °F - 37.4 °F 100% 30.20 in 15.0 mi SSW 2.3 mph - N/A   Partly Cloudy
7:00 AM 35.6 °F - 35.6 °F 100% 30.22 in 20.0 mi Calm Calm - N/A   Scattered Clouds
8:00 AM 37.4 °F - 37.4 °F 100% 30.23 in 20.0 mi Calm Calm - N/A Fog Shallow Fog
9:00 AM 39.2 °F - 39.2 °F 100% 30.25 in 20.0 mi Calm Calm - N/A Fog Shallow Fog
10:00 AM 43 °F - 41 °F 92% 30.26 in 19 mi SSW 3.5 mph - -   Partly Cloudy
10:00 AM 42.8 °F 41.1 °F 41.0 °F 93% 30.26 in 20.0 mi SSW 3.5 mph - N/A   Scattered Clouds
11:00 AM 46.4 °F 42.9 °F 42.8 °F 87% 30.26 in 20.0 mi SSW 6.9 mph - N/A   Scattered Clouds
12:00 PM 48.2 °F - 42.8 °F 82% 30.25 in 25.0 mi SSW 9.2 mph - N/A   Mostly Cloudy
1:00 PM 50.0 °F - 41.0 °F 71% 30.25 in 25.0 mi South 9.2 mph - N/A   Scattered Clouds
2:00 PM 48.2 °F - 41.0 °F 76% 30.25 in 25.0 mi SW 8.1 mph - N/A   Mostly Cloudy
3:00 PM 48.2 °F - 39.2 °F 71% 30.25 in 30.0 mi SW 8.1 mph - N/A   Scattered Clouds
4:00 PM 46 °F - 39 °F 68% 30.25 in 28 mi West 5.8 mph - -   Scattered Clouds
4:00 PM 46.4 °F 43.5 °F 39.2 °F 76% 30.25 in 30.0 mi WSW 5.8 mph - N/A   Partly Cloudy
5:00 PM 42.8 °F - 39.2 °F 87% 30.25 in 15.0 mi Calm Calm - N/A   Scattered Clouds
6:00 PM 39.2 °F - 37.4 °F 93% 30.24 in 15.0 mi Calm Calm - N/A   Scattered Clouds
7:00 PM 35.6 °F - 35.6 °F 100% 30.25 in 15.0 mi Calm Calm - N/A   Scattered Clouds
8:00 PM 33.8 °F - 33.8 °F 100% 30.25 in 10.0 mi Calm Calm - N/A Fog Patches of Fog
9:00 PM 32.0 °F - 32.0 °F 100% 30.26 in 1.2 mi Calm Calm - N/A   Partly Cloudy
9:03 PM 32.0 °F - 32.0 °F 100% 30.26 in 0.5 mi Calm Calm - N/A Fog Fog
10:00 PM 33 °F - 33 °F 100% 30.27 in 0 mi South 2.3 mph - - Fog Partial Fog
10:00 PM 33.8 °F 30.8 °F 33.8 °F 100% 30.27 in 0.5 mi South 3.5 mph - N/A Fog Fog
10:50 PM 35.6 °F 32.8 °F 35.6 °F 100% 30.28 in 1.0 mi SW 3.5 mph - N/A   Mostly Cloudy
11:00 PM 35.6 °F - 35.6 °F 100% 30.28 in 1.2 mi Calm Calm - N/A   Scattered Clouds